Location: Krasnoyarskiy Pitomnik
(51.1333°N, 71.6167°E)
Time: 17:37:00
(UTC+00:00)

CZ-2D DEB - Visible Passes

Search period start: 05 December 2025 00:00
Search period end: 15 December 2025 00:00
Orbit: 553 x 571 km, 98.3° (Epoch: 05 December)

Date Brightness Start Highest point End Pass type
(mag) Time Alt. Az. Time Alt. Az. Time Alt. Az.
05 Dec ? 00:04:51 10° SE 00:08:35 38° ENE 00:10:12 26° NNE visible
05 Dec ? 01:40:17 10° SSW 01:43:36 24° W 01:46:09 14° NW visible
05 Dec ? 13:19:40 11° SSE 13:19:40 11° SSE 13:19:51 10° SSE visible
06 Dec ? 00:04:17 10° SE 00:08:00 37° ENE 00:09:30 27° NNE visible
06 Dec ? 01:39:40 10° SSW 01:43:01 25° W 01:45:27 15° NW visible
06 Dec ? 13:19:05 11° SSE 13:19:05 11° SSE 13:19:14 10° SSE visible
07 Dec ? 00:03:41 10° SE 00:07:24 37° ENE 00:08:48 27° NNE visible
07 Dec ? 01:39:02 10° SSW 01:42:23 25° W 01:44:45 15° NW visible
07 Dec ? 13:18:28 10° SSE 13:18:28 10° SSE 13:18:34 10° SSE visible
08 Dec ? 00:03:05 10° SE 00:06:46 36° ENE 00:08:04 28° NNE visible
08 Dec ? 01:38:21 10° SSW 01:41:44 26° W 01:44:01 16° NW visible
08 Dec ? 13:17:50 10° SSE 13:17:50 10° SSE 13:17:52 10° SSE visible
09 Dec ? 00:02:26 10° SE 00:06:06 35° ENE 00:07:19 28° NNE visible
09 Dec ? 01:37:40 10° SSW 01:41:04 26° W 01:43:16 17° NW visible
10 Dec ? 00:01:47 10° SE 00:05:25 34° ENE 00:06:33 29° NNE visible
10 Dec ? 01:36:57 10° SSW 01:40:22 27° W 01:42:30 17° NW visible
11 Dec ? 00:01:06 10° SE 00:04:43 34° ENE 00:05:46 29° NE visible
11 Dec ? 01:36:12 10° SSW 01:39:39 27° W 01:41:43 18° NW visible
12 Dec ? 00:00:24 10° SE 00:03:59 33° ENE 00:04:58 29° NE visible
12 Dec ? 01:35:26 10° SSW 01:38:54 28° W 01:40:54 19° NW visible
12 Dec ? 23:59:40 10° SE 00:03:14 32° ENE 00:04:07 29° NE visible
13 Dec ? 01:34:39 10° SSW 01:38:09 29° W 01:40:04 19° NW visible
13 Dec ? 23:58:55 10° SE 00:02:27 31° ENE 00:03:17 29° NE visible
14 Dec ? 01:33:50 10° SSW 01:37:20 29° W 01:39:13 20° NW visible
